[[{"header":{"parameterUnit":"m.s-1","parameterCategory":1,"la1":30.2991,"la2":30.254,"lo1":-89.0895,"lo2":-89.0444,"dy":0.0017,"dx":0.0017,"nx":28,"ny":28,"refTime":"2024-12-16T03:00:00:Z","depth":0,"parameterNumber":2,"parameterNumberName":"U-component_of_WINDS"},"data":[0,0,0,0,0,0,0,0,0,0,0,0,0,0,0,0,0,0,0,0,0,0,0,0,0,0,0,0,0,0,0,0,0,0,0,0,0,0,0,0,0,0,0,0,0,0,0,0,0,0,0,0,0,0,0,0,0,0,-4.6866,-4.6866,0,-4.6843,-4.6842,-4.6842,-4.6693,-4.6689,-4.6685,-4.6682,-4.666,-4.6663,-4.6665,0,0,0,0,0,0,0,0,0,0,0,0,0,-4.6785,-4.6787,-4.6866,-4.6866,-4.6865,-4.6843,-4.6842,-4.6842,-4.6693,-4.6689,-4.6684,-4.668,-4.6659,-4.6662,-4.6666,0,0,0,0,0,0,0,0,0,0,0,0,0,-4.6797,-4.6788,-4.6866,-4.6788,-4.6781,-4.6843,-4.6842,-4.6842,-4.6694,-4.6689,-4.6683,-4.6678,-4.6658,-4.6662,-4.6666,-4.6801,0,0,-4.6679,-4.6681,0,0,0,0,0,0,0,0,-4.6796,-4.68,-4.68,-4.6794,-4.6786,-4.6765,-4.6805,-4.6828,-4.6696,-4.6727,-4.6682,-4.6676,-4.6699,-4.67,-4.6707,-4.68,-4.6799,-4.6679,-4.6682,-4.6684,-4.6685,0,0,0,0,0,0,0,-4.6796,-4.68,-4.6857,-4.68,-4.6792,-4.6756,-4.6751,-4.6809,-4.6744,-4.6724,-4.6713,-4.6712,-4.6694,-4.6704,-4.6706,-4.6799,-4.6679,-4.6683,-4.6685,-4.6687,-4.7002,-4.7008,0,0,0,0,0,0,-4.6805,-4.68,-4.6857,-4.6856,-4.6778,-4.6762,-4.6757,-4.6777,-4.6743,-4.6733,-4.6717,-4.6706,-4.6699,-4.6701,-4.6705,-4.6861,-4.6684,-4.6688,-4.669,-4.6997,-4.7004,-4.701,0,0,0,0,0,0,-4.6804,-4.6812,-4.6858,-4.6825,-4.6828,-4.6769,-4.6793,-4.678,-4.6789,-4.6738,-4.6726,-4.6738,-4.6695,-4.6699,-4.6778,-4.6858,-4.6689,-4.6693,-4.699,-4.6999,-4.7007,-4.7176,0,0,0,0,0,0,-4.6802,-4.6812,-4.6862,-4.6827,-4.6831,-4.6932,-4.6798,-4.6783,-4.6796,-4.6781,-4.6755,-4.6745,-4.6691,-4.6773,-4.6783,-4.6861,-4.6696,-4.6982,-4.6994,-4.7004,-4.7163,-4.7189,-4.7212,0,0,0,0,0,-4.68,-4.691,-4.6865,-4.6873,-4.6892,-4.6937,-4.6939,-4.6874,-4.6803,-4.6853,-4.6821,-4.6746,-4.6848,-4.6782,-4.6792,-4.6873,-4.6977,-4.6991,-4.7003,-4.7152,-4.7184,-4.7211,0,0,0,0,0,0,-4.6956,-4.6904,-4.6854,-4.6956,-4.6952,-4.6912,-4.6973,-4.691,-4.6927,-4.6912,-4.6831,-4.6827,-4.6919,-4.6903,-4.6831,-4.7003,-4.69,-4.6916,-4.7009,-4.704,-4.7064,-4.7066,-4.67,0,0,0,0,0,-4.7003,-4.7043,-4.6996,-4.7091,-4.7092,-4.7034,-4.7051,-4.7001,-4.6994,-4.6992,-4.6965,-4.6962,-4.6993,-4.7015,-4.7041,-4.716,-4.7153,-4.722,-4.7245,-4.7265,-4.728,-4.7344,-4.7374,-4.7053,-4.7053,-4.7053,0,0,-4.7099,-4.7075,-4.7106,-4.7122,-4.7113,-4.7158,-4.7033,-4.7085,-4.7118,-4.7,-4.7073,-4.7054,-4.7045,-4.7146,-4.7189,-4.7136,-4.7367,-4.7282,-4.7299,-4.7303,-4.7361,-4.7391,-4.7418,-4.7062,-4.7061,-4.7059,0,0,-4.7297,-4.7283,-4.7361,-4.7355,-4.7344,-4.7304,-4.7324,-4.7293,-4.7276,-4.7349,-4.7261,-4.73,-4.7355,-4.7353,-4.7359,-4.7559,-4.7491,-4.757,-4.7698,-4.7761,-4.7787,-4.7809,-4.7882,-4.7909,-4.7585,-4.7585,-4.7585,0,-4.7418,-4.7482,-4.741,-4.7469,-4.7479,-4.7374,-4.7454,-4.7451,-4.7449,-4.7459,-4.74,-4.7469,-4.7455,-4.7554,-4.7603,-4.7611,-4.7632,-4.7573,-4.7789,-4.781,-4.783,-4.7898,-4.7926,-4.7595,-4.7594,-4.7593,-4.7592,0,-4.7632,-4.7678,-4.7743,-4.7744,-4.7761,-4.783,-4.777,-4.7797,-4.7746,-4.7714,-4.7791,-4.7771,-4.7792,-4.7812,-4.7763,-4.7905,-4.7873,-4.7803,-4.7698,-4.7871,-4.7934,-4.796,-4.7609,-4.7605,-4.7602,-4.76,0,0,-4.7927,-4.7889,-4.7914,-4.7914,-4.7894,-4.7929,-4.7994,-4.8014,-4.8039,-4.8042,-4.8096,-4.8146,-4.8081,-4.8088,-4.8038,-4.8094,-4.8256,-4.8016,-4.8015,-4.8063,-4.8413,-4.8467,-4.8499,-4.821,-4.8215,-4.8219,-4.8415,0,-4.8119,-4.8227,-4.8166,-4.8283,-4.8326,-4.8228,-4.8285,-4.828,-4.8252,-4.8284,-4.8253,-4.8291,-4.8201,-4.8206,-4.8256,-4.8226,-4.8325,-4.821,-4.8261,-4.8264,-4.8267,-4.8531,-4.8588,-4.8774,-4.8439,-4.8443,-4.8446,0,-4.8356,-4.8369,-4.8492,-4.8466,-4.8481,-4.8534,-4.8548,-4.858,-4.8573,-4.8549,-4.8559,-4.8496,-4.8559,-4.8456,-4.8543,-4.8466,-4.8483,-4.8472,-4.8478,-4.8481,-4.8366,-4.8543,-4.8831,-4.886,-4.8484,-4.8481,-4.8478,0,-4.8561,-4.861,-4.8689,-4.8692,-4.8664,-4.8703,-4.8693,-4.868,-4.8698,-4.8711,-4.8721,-4.8742,-4.8754,-4.8772,-4.8717,-4.8646,-4.8813,-4.8704,-4.8796,-4.8797,-4.8835,-4.8834,-4.9132,-4.8845,-4.8845,-4.8844,-4.8844,0,-4.8782,-4.8861,-4.8781,-4.8831,-4.8917,-4.8846,-4.8934,-4.8913,-4.8904,-4.8948,-4.8864,-4.8908,-4.8833,-4.8869,-4.8827,-4.8907,-4.8912,-4.8896,-4.8884,-4.8904,-4.8906,-4.8914,-4.8901,-4.8852,-4.885,-4.8849,-4.8847,0,-4.9025,-4.8975,-4.9056,-4.9023,-4.9016,-4.9082,-4.9054,-4.9099,-4.9065,-4.9123,-4.9133,-4.9081,-4.912,-4.9067,-4.91,-4.9072,-4.9182,-4.915,-4.9185,-4.9176,-4.9271,-4.9264,-4.9586,-4.9625,-4.9313,-4.9316,-4.9318,0,-4.9169,-4.9228,-4.9202,-4.9226,-4.9221,-4.926,-4.9277,-4.921,-4.9232,-4.923,-4.9276,-4.9308,-4.9329,-4.9397,-4.9363,-4.9389,-4.9357,-4.9469,-4.9361,-4.938,-4.9361,-4.9358,-4.9365,-4.9491,-4.9495,-4.9498,-4.95,0,-4.9432,-4.9405,-4.9432,-4.9453,-4.9476,-4.9488,-4.9494,-4.9519,-4.9449,-4.9478,-4.9517,-4.9534,-4.9569,-4.9603,-4.962,-4.961,-4.9545,-4.9535,-4.9557,-4.9579,-4.9597,-4.959,-4.9246,-4.9527,-4.9525,-4.9523,-4.9521,-4.952,-4.963,-4.9679,-4.9669,-4.9703,-4.9701,-4.971,-4.9751,-4.9723,-4.9755,-4.9778,-4.9736,-4.9787,-4.978,-4.9796,-4.9795,-4.9833,-4.9785,-4.9818,-4.9826,-4.9836,-4.9851,-4.9591,-4.9836,-4.9835,-4.9835,-4.9834,-4.9833,0,-4.9889,-4.9878,-4.9911,-4.9923,-4.9951,-4.9886,-4.9891,-4.9918,-4.9964,-4.9963,-4.9987,-5.0033,-5.0065,-5.0035,-5.0062,-5.0099,-5.007,-5.0108,-5.0105,-5.0105,-4.9892,-4.987,-5.0132,-5.0132,-5.0132,-5.0132,-5.0132,-5.0131,-5.0027,-5.0106,-5.0079,-5.0157,-5.0145,-5.0193,-5.0202,-5.021,-5.0209,-5.0264,-5.0291,-5.0271,-5.0259,-5.0284,-5.0312,-5.0302,-5.0317,-5.0367,-5.0347,-5.0149,-5.0119,-5.0091,-5.0071,-5.037,-5.037,-5.0556,-5.0557,-5.0559]},{"header":{"parameterUnit":"m.s-1","parameterCategory":1,"la1":30.2991,"la2":30.254,"lo1":-89.0895,"lo2":-89.0444,"dy":0.0017,"dx":0.0017,"nx":28,"ny":28,"refTime":"2024-12-16T03:00:00:Z","depth":0,"parameterNumber":3,"parameterNumberName":"V-component_of_WINDS"},"data":[0,0,0,0,0,0,0,0,0,0,0,0,0,0,0,0,0,0,0,0,0,0,0,0,0,0,0,0,0,0,0,0,0,0,0,0,0,0,0,0,0,0,0,0,0,0,0,0,0,0,0,0,0,0,0,0,0,0,-0.7803,-0.7804,0,-0.7845,-0.7845,-0.7845,-0.7834,-0.7833,-0.7832,-0.7832,-0.7873,-0.7875,-0.7877,0,0,0,0,0,0,0,0,0,0,0,0,0,-0.7712,-0.7714,-0.7803,-0.7804,-0.7804,-0.7844,-0.7845,-0.7846,-0.7834,-0.7833,-0.7832,-0.7831,-0.7872,-0.7875,-0.7877,0,0,0,0,0,0,0,0,0,0,0,0,0,-0.7752,-0.7715,-0.7803,-0.7803,-0.7804,-0.7844,-0.7845,-0.7846,-0.7834,-0.7833,-0.7832,-0.7831,-0.7872,-0.7874,-0.7877,-0.792,0,0,-0.7886,-0.7887,0,0,0,0,0,0,0,0,-0.775,-0.7756,-0.7803,-0.7804,-0.7804,-0.7833,-0.7828,-0.787,-0.7835,-0.7823,-0.7832,-0.783,-0.7861,-0.7864,-0.7875,-0.7921,-0.7923,-0.7886,-0.7888,-0.7889,-0.789,0,0,0,0,0,0,0,-0.7747,-0.7754,-0.782,-0.7804,-0.7804,-0.7801,-0.7805,-0.7836,-0.7848,-0.7824,-0.7823,-0.7828,-0.7861,-0.7872,-0.7876,-0.7924,-0.7886,-0.7888,-0.789,-0.7891,-0.8005,-0.8007,0,0,0,0,0,0,-0.7744,-0.7752,-0.7818,-0.7821,-0.7774,-0.7803,-0.7808,-0.7825,-0.7848,-0.785,-0.7829,-0.7827,-0.7868,-0.7872,-0.7877,-0.7927,-0.7889,-0.7892,-0.7893,-0.8004,-0.8006,-0.8007,0,0,0,0,0,0,-0.7743,-0.7751,-0.7817,-0.7786,-0.7794,-0.7806,-0.7825,-0.7826,-0.7838,-0.7852,-0.7854,-0.7839,-0.7867,-0.7873,-0.7909,-0.7928,-0.7893,-0.7895,-0.8003,-0.8005,-0.8006,-0.8028,0,0,0,0,0,0,-0.774,-0.775,-0.7767,-0.7787,-0.7796,-0.7848,-0.7826,-0.7828,-0.7843,-0.7841,-0.7861,-0.7864,-0.7867,-0.7905,-0.7911,-0.7932,-0.7898,-0.8001,-0.8003,-0.8006,-0.8026,-0.8031,-0.8035,0,0,0,0,0,-0.7737,-0.7771,-0.7768,-0.7776,-0.7817,-0.785,-0.7855,-0.7858,-0.7844,-0.7861,-0.787,-0.7863,-0.7925,-0.7908,-0.7916,-0.7937,-0.8,-0.8003,-0.8006,-0.8024,-0.803,-0.8035,0,0,0,0,0,0,-0.7754,-0.7774,-0.777,-0.7813,-0.7829,-0.7848,-0.7869,-0.7864,-0.7885,-0.7883,-0.7885,-0.789,-0.7926,-0.7935,-0.7916,-0.7978,-0.796,-0.7965,-0.7971,-0.7977,-0.7982,-0.7979,-0.79,0,0,0,0,0,-0.7763,-0.7788,-0.7804,-0.7839,-0.7848,-0.7857,-0.7871,-0.7872,-0.7889,-0.7896,-0.7908,-0.7924,-0.7947,-0.7963,-0.7985,-0.8027,-0.803,-0.8045,-0.805,-0.8053,-0.8057,-0.8079,-0.8085,-0.8017,-0.8017,-0.8017,0,0,-0.7781,-0.7795,-0.7811,-0.7843,-0.7856,-0.7881,-0.7863,-0.7891,-0.7909,-0.79,-0.7934,-0.7943,-0.7962,-0.8001,-0.8018,-0.8009,-0.8077,-0.8057,-0.806,-0.8062,-0.8082,-0.8089,-0.8094,-0.8019,-0.8019,-0.8018,0,0,-0.7827,-0.784,-0.7871,-0.7884,-0.7904,-0.7909,-0.7917,-0.7935,-0.7941,-0.7975,-0.7969,-0.799,-0.803,-0.8043,-0.8055,-0.8104,-0.8098,-0.8111,-0.8135,-0.8156,-0.8161,-0.8166,-0.8182,-0.8188,-0.8115,-0.8115,-0.8115,0,-0.7847,-0.7885,-0.7887,-0.7915,-0.7929,-0.7922,-0.7952,-0.7964,-0.7991,-0.8,-0.799,-0.8039,-0.8051,-0.8092,-0.8104,-0.8114,-0.8121,-0.8109,-0.816,-0.8165,-0.817,-0.8185,-0.8192,-0.8117,-0.8116,-0.8116,-0.8116,0,-0.7908,-0.7934,-0.7956,-0.7981,-0.7998,-0.8027,-0.8032,-0.8048,-0.8047,-0.8053,-0.8087,-0.8101,-0.8125,-0.8135,-0.8135,-0.8175,-0.8169,-0.816,-0.8141,-0.8177,-0.8192,-0.8198,-0.8119,-0.8118,-0.8118,-0.8117,0,0,-0.7967,-0.7992,-0.8,-0.801,-0.8031,-0.8051,-0.8079,-0.8102,-0.8116,-0.8133,-0.8156,-0.8189,-0.818,-0.8194,-0.8194,-0.8212,-0.8248,-0.82,-0.8201,-0.8208,-0.8293,-0.83,-0.8307,-0.8244,-0.8246,-0.8247,-0.8291,0,-0.8014,-0.8064,-0.8066,-0.811,-0.8134,-0.8126,-0.815,-0.8165,-0.8171,-0.8191,-0.8197,-0.8221,-0.8207,-0.8215,-0.8233,-0.824,-0.8265,-0.8237,-0.8265,-0.8266,-0.826,-0.8315,-0.8323,-0.8364,-0.8297,-0.8298,-0.8299,0,-0.8076,-0.8096,-0.8143,-0.8158,-0.8168,-0.819,-0.8211,-0.823,-0.8246,-0.8249,-0.8263,-0.8261,-0.8288,-0.8268,-0.8305,-0.8286,-0.8297,-0.8302,-0.8304,-0.8306,-0.8285,-0.8318,-0.8378,-0.8384,-0.8308,-0.8307,-0.8307,0,-0.8114,-0.8151,-0.8184,-0.8193,-0.8213,-0.8228,-0.8237,-0.8251,-0.8265,-0.8283,-0.8291,-0.8312,-0.8323,-0.8339,-0.8342,-0.8327,-0.8378,-0.8359,-0.8381,-0.8381,-0.8392,-0.8391,-0.8453,-0.84,-0.84,-0.84,-0.8399,0,-0.8166,-0.8195,-0.8201,-0.8221,-0.8252,-0.8254,-0.8285,-0.8292,-0.8305,-0.8325,-0.832,-0.8339,-0.8342,-0.8361,-0.8363,-0.8393,-0.8398,-0.84,-0.8401,-0.8401,-0.84,-0.8408,-0.8405,-0.8401,-0.8401,-0.84,-0.84,0,-0.8214,-0.8219,-0.8254,-0.8269,-0.8273,-0.8296,-0.8308,-0.8327,-0.8331,-0.8357,-0.8363,-0.8371,-0.8393,-0.8397,-0.8424,-0.8425,-0.846,-0.8458,-0.8455,-0.8455,-0.8476,-0.8473,-0.8545,-0.8554,-0.8495,-0.8495,-0.8496,0,-0.8247,-0.8269,-0.8286,-0.8299,-0.8309,-0.833,-0.8344,-0.8345,-0.8359,-0.8378,-0.8394,-0.8416,-0.8434,-0.847,-0.8477,-0.8497,-0.8495,-0.8518,-0.8498,-0.8497,-0.8494,-0.8493,-0.8494,-0.8522,-0.8523,-0.8523,-0.8524,0,-0.8305,-0.8306,-0.8326,-0.8346,-0.8362,-0.8378,-0.8393,-0.8404,-0.8408,-0.8423,-0.8446,-0.846,-0.8487,-0.8508,-0.8528,-0.8536,-0.853,-0.853,-0.8536,-0.8536,-0.8534,-0.8535,-0.8465,-0.8529,-0.8528,-0.8528,-0.8527,-0.8527,-0.8346,-0.8364,-0.8379,-0.8401,-0.8412,-0.8426,-0.8444,-0.845,-0.8469,-0.8491,-0.849,-0.8515,-0.8529,-0.8554,-0.8563,-0.8582,-0.8575,-0.8583,-0.8586,-0.8588,-0.8589,-0.8531,-0.8586,-0.8586,-0.8586,-0.8585,-0.8585,0,-0.8403,-0.8412,-0.8431,-0.8452,-0.8469,-0.8462,-0.8478,-0.8492,-0.8514,-0.8527,-0.8544,-0.857,-0.859,-0.8599,-0.8618,-0.8632,-0.8629,-0.8637,-0.8636,-0.8637,-0.8595,-0.8588,-0.8638,-0.8638,-0.8638,-0.8638,-0.8638,-0.8638,-0.8435,-0.8465,-0.8468,-0.8503,-0.8511,-0.8536,-0.8545,-0.8557,-0.8568,-0.8596,-0.8613,-0.8618,-0.8629,-0.8649,-0.8667,-0.8669,-0.8676,-0.8684,-0.8685,-0.8646,-0.864,-0.8635,-0.8628,-0.8686,-0.8686,-0.8725,-0.8726,-0.8726]}]]